sat.trackr.live / text

‹ back to catalog

STARLINK-34016

NORAD 64016 · 2025-101Y

PAYLOAD ACTIVE UNKNOWN

§ Identity

Operator
Country
US
Launch date
2025-05-14
Launch site
AFETR
Launch vehicle
Mass (kg)
RCS (m²)

Purposes: comms

External: N2YO · Heavens-Above · Gunter

§ Orbital elements

Epoch: 2026-05-25T02:19:00.535008Z

Period
94.27 min
Inclination
43.0014°
Eccentricity
0.0000569
Mean motion
15.27596668 rev/d
Perigee alt
482.6 km
Apogee alt
483.4 km
Semi-major
6,861.1 km
B*
3.2132e-4
RAAN
286.1911°
Arg perigee
328.4543°
Mean anomaly
31.6275°
Rev number
5,874

§ Raw data

STARLINK-340161 64016U 25101Y   26145.09653397  .00008595  00000+0  32132-3 0  99962 64016  43.0014 286.1911 0000569 328.4543  31.6275 15.27596668 58741

JSON: /api/v1/satellites/64016 · /tle

For live sub-satellite position, see the globe view (requires WebGL).

§ Visibility from observer

Set your observer location to see the next 7 days of passes ≥ 10°. The values pass through the URL so the page stays shareable.

No JS? Fill the form by hand. The geolocation button needs JavaScript.